Weather History for Youngstown, OH

Change the Weather History Date:

Friday, February 21, 2014

  Actual Average Record
Temperature  
Mean Temperature 44 °F 30 °F  
Max Temperature 53 °F 38 °F 71 °F (1997)
Min Temperature 35 °F 22 °F -9 °F (1968)
Degree Days  
Heating Degree Days 21 35  
Month to date heating degree days 919 784  
Since 1 July heating degree days 4758 4407  
Cooling Degree Days 0 0  
Month to date cooling degree days 0 0  
Year to date cooling degree days 0 0  
Moisture  
Dew Point 32 °F    
Average Humidity 63    
Maximum Humidity 86    
Minimum Humidity 40    
Precipitation  
Precipitation 0.18 in 0.08 in 0.97 in (1951)
Month to date precipitation 2.04 1.57  
Year to date precipitation 4.47 4.12  
Snow  
Snow T in 0.50 in - ()
Month to date snowfall 18.3 9.5  
Since 1 July snowfall 75.9 45.5  
Snow Depth 3.00 in    
Sea Level Pressure  
Sea Level Pressure 29.68 in    
Wind  
Wind Speed 16 mph (SW)    
Max Wind Speed 33 mph    
Max Gust Speed 46 mph    
Visibility 9 miles    
Events Rain , Snow    
T = Trace of Precipitation, MM = Missing Value Source: NWS Daily Summary

Daily Weather History Graph

Daily Weather History Graph

Search for Another Location

Airport:

Trip Planner

Search our weather history database for the weather conditions in past years. The results will help you decide how hot, cold, wet, or windy it might be!

Date:

Astronomy

Feb. 21, 2014 Rise Set
Actual Time 7:09 AM EST 6:04 PM EST
Civil Twilight 6:41 AM EST 6:32 PM EST
Nautical Twilight 6:09 AM EST 7:04 PM EST
Astronomical Twilight 5:37 AM EST 7:36 PM EST
Moon No Moon Rise 10:28 AM EST (2/21)
Length of Visible Light 11h 50m
Length of Day
10h 54m
Waning Gibbous, 61% of the Moon is Illuminated
Feb 21
Waning Gibbous
Feb 22
Last Quarter
Mar 1
New
Mar 8
First Quarter
Mar 16
Full

Hourly Weather History & Observations

Time (EST) Temp. Windchill Dew Point Humidity Pressure Visibility Wind Dir Wind Speed Gust Speed Precip Events Conditions
12:51 AM 50.0 °F - 44.1 °F 80% 29.63 in 7.0 mi SSE 8.1 mph - 0.03 in Rain Rain
1:51 AM 50.0 °F - 46.9 °F 89% 29.58 in 7.0 mi SSE 15.0 mph 20.7 mph 0.06 in Rain Light Rain
2:51 AM 50.0 °F - 46.0 °F 86% 29.55 in 10.0 mi SE 13.8 mph 19.6 mph 0.01 in   Overcast
3:51 AM 50.0 °F - 45.0 °F 83% 29.53 in 8.0 mi SSE 13.8 mph 24.2 mph 0.02 in Rain Light Rain
4:40 AM 50.0 °F - 46.4 °F 87% 29.53 in 10.0 mi South 8.1 mph - 0.03 in   Overcast
4:51 AM 50.0 °F - 46.9 °F 89% 29.52 in 9.0 mi South 8.1 mph - 0.03 in Rain Light Rain
4:57 AM 50.0 °F - 46.4 °F 87% 29.53 in 10.0 mi South 11.5 mph 18.4 mph 0.00 in   Overcast
5:16 AM 48.2 °F - 46.4 °F 93% 29.55 in 6.0 mi WSW 12.7 mph 19.6 mph 0.01 in Rain Light Rain
5:26 AM 48.2 °F - 46.4 °F 93% 29.55 in 8.0 mi WSW 13.8 mph - 0.01 in   Overcast
5:42 AM 48.2 °F - 44.6 °F 87% 29.55 in 10.0 mi WSW 10.4 mph - 0.01 in   Overcast
5:51 AM 46.9 °F - 45.0 °F 93% 29.57 in 8.0 mi SW 12.7 mph 21.9 mph 0.01 in   Overcast
6:51 AM 43.0 °F 34.5 °F 37.9 °F 82% 29.61 in 10.0 mi WSW 19.6 mph 32.2 mph 0.00 in Rain Light Rain
7:26 AM 37.4 °F 27.5 °F 33.8 °F 87% 29.63 in 10.0 mi SW 18.4 mph - 0.00 in Rain Light Rain
7:40 AM 37.4 °F 26.4 °F 30.2 °F 75% 29.65 in 6.0 mi WSW 23.0 mph 28.8 mph 0.00 in Rain Light Rain
7:51 AM 36.0 °F 25.6 °F 30.9 °F 82% 29.69 in 2.5 mi WSW 18.4 mph 26.5 mph 0.01 in Rain , Snow Light Rain
7:56 AM 35.6 °F 25.2 °F 30.2 °F 81% 29.65 in 3.0 mi West 18.4 mph 27.6 mph 0.00 in Snow Light Snow
8:17 AM 35.6 °F 26.2 °F 30.2 °F 81% 29.68 in 10.0 mi SW 15.0 mph - 0.01 in   Overcast
8:51 AM 36.0 °F 28.5 °F 30.9 °F 82% 29.69 in 10.0 mi SW 10.4 mph - 0.01 in   Overcast
9:51 AM 37.0 °F 29.8 °F 28.9 °F 73% 29.70 in 10.0 mi SW 10.4 mph 20.7 mph N/A   Overcast
10:42 AM 37.4 °F 28.9 °F 28.4 °F 70% 29.69 in 10.0 mi SSW 13.8 mph 24.2 mph N/A   Overcast
10:51 AM 37.9 °F 28.2 °F 28.9 °F 70% 29.71 in 10.0 mi SW 18.4 mph 26.5 mph N/A   Overcast
11:51 AM 39.0 °F 30.3 °F 28.9 °F 67% 29.71 in 10.0 mi SW 16.1 mph 36.8 mph N/A   Overcast
12:51 PM 39.9 °F 30.2 °F 28.9 °F 65% 29.69 in 10.0 mi SW 20.7 mph 28.8 mph N/A   Overcast
1:51 PM 39.9 °F 29.2 °F 26.1 °F 58% 29.68 in 10.0 mi WSW 25.3 mph 40.3 mph 0.00 in Rain Light Rain
2:51 PM 39.0 °F 28.3 °F 26.1 °F 60% 29.71 in 10.0 mi WSW 24.2 mph 38.0 mph 0.00 in   Overcast
3:51 PM 39.0 °F 28.3 °F 23.0 °F 53% 29.73 in 10.0 mi SW 24.2 mph 38.0 mph N/A   Overcast
4:51 PM 39.9 °F 31.8 °F 23.0 °F 51% 29.76 in 10.0 mi SW 15.0 mph 28.8 mph N/A   Mostly Cloudy
5:51 PM 39.0 °F 30.6 °F 23.0 °F 53% 29.78 in 10.0 mi SW 15.0 mph 25.3 mph N/A   Scattered Clouds
6:51 PM 37.9 °F 30.9 °F 23.0 °F 55% 29.81 in 10.0 mi SW 10.4 mph - N/A   Partly Cloudy
7:51 PM 37.9 °F 29.2 °F 19.0 °F 47% 29.83 in 10.0 mi SW 15.0 mph 25.3 mph N/A   Clear
8:51 PM 37.9 °F 27.9 °F 15.1 °F 39% 29.86 in 10.0 mi WSW 19.6 mph 27.6 mph N/A   Clear
9:51 PM 37.0 °F 26.2 °F 15.1 °F 41% 29.89 in 10.0 mi SW 21.9 mph 32.2 mph N/A   Clear
10:51 PM 35.1 °F 25.9 °F 16.0 °F 46% 29.91 in 10.0 mi SW 13.8 mph 25.3 mph N/A   Clear
11:51 PM 35.1 °F 26.4 °F 15.1 °F 44% 29.92 in 10.0 mi SW 12.7 mph - N/A   Clear